Regional Weather Roundup
Issued by NWS

Home | Current Version | Previous Version | Graphics & Text | Print | Product List | Glossary On
Versions: 1 2 3 4 5 6 7 8 9 10 11 12 13 14 15 16 17 18 19 20 21 22 23 24 25 26 27 28 29 30 31 32 33 34 35 36 37 38 39 40 41 42 43 44 45 46 47 48 49 50
000
ASUS43 KBIS 242220
RWRND

NORTH DAKOTA REGIONAL WEATHER ROUNDUP
NATIONAL WEATHER SERVICE BISMARCK ND
500 PM CDT SUN MAY 24 2015

NOTE: "FAIR" INDICATES FEW OR NO CLOUDS BELOW 12,000 FEET WITH NO
SIGNIFICANT WEATHER AND/OR OBSTRUCTIONS TO VISIBILITY.


NDZ001>003-009>011-017-242300-
NORTHWEST NORTH DAKOTA

CITY           SKY/WX    TMP DP  RH WIND       PRES   REMARKS
WILLISTON      MOSUNNY   77  39  25 SE9G21    29.94F
MINOT          PTSUNNY   74  42  31 E9        29.94F
MINOT AFB      PTSUNNY   76  42  29 E13G22    29.93F
$$

NDZ018>021-031>035-040>046-242300-
SOUTHWEST NORTH DAKOTA

CITY           SKY/WX    TMP DP  RH WIND       PRES   REMARKS
BISMARCK       CLOUDY    68  50  52 E13       29.93F
DICKINSON      CLOUDY    66  49  54 E14       29.93F
GARRISON         N/A     70  47  43 SE12      29.94F
HETTINGER ARPT CLOUDY    62  50  64 E14       29.94F
$$

NDZ004>008-012>016-024-026-027-054-242300-
NORTHEAST NORTH DAKOTA

CITY           SKY/WX    TMP DP  RH WIND       PRES   REMARKS
GRAND FORKS    CLOUDY    75  47  36 E7        29.92F
GRND FRKS AFB  CLOUDY    75  49  39 E7        29.93F
DEVILS LAKE    CLOUDY    72  48  43 SE8       29.94F
$$

NDZ022-023-025-028>030-036>039-047>053-242300-
SOUTHEAST NORTH DAKOTA

CITY           SKY/WX    TMP DP  RH WIND       PRES   REMARKS
FARGO          CLOUDY    70  51  51 SE13      29.91F
JAMESTOWN      CLOUDY    66  51  58 E12       29.92F
$$




USA.gov is the U.S. government's official web portal to all federal, state and local government web resources and services.